Location: Allens Landing
(37.8284°N, 89.7284°W)
Time: 00:50:01
(UTC+00:00)

ACS3 Solar Sail - Visible Passes

Search period start: 16 October 2024 00:00
Search period end: 26 October 2024 00:00
Orbit: 959 x 1034 km, 97.5° (Epoch: 15 October)

Date Brightness Start Highest point End Pass type
(mag) Time Alt. Az. Time Alt. Az. Time Alt. Az.
16 Oct 2.1 01:20:50 47° ENE 01:20:50 47° ENE 01:26:41 10° N visible
16 Oct 3.8 03:05:57 24° WNW 03:05:57 24° WNW 03:09:50 10° NW visible
17 Oct 3.5 00:07:20 12° ENE 00:08:45 13° ENE 00:11:20 10° NE visible
17 Oct 1.9 01:52:27 70° N 01:52:27 70° N 01:58:01 10° N visible
17 Oct 4.5 03:37:33 12° WNW 03:37:33 12° WNW 03:39:04 10° WNW visible
18 Oct 2.9 00:38:56 23° ENE 00:39:22 23° ENE 00:44:10 10° NNE visible
18 Oct 2.7 02:24:03 47° WNW 02:24:03 47° WNW 02:28:59 10° NNW visible
19 Oct 2.3 01:10:32 40° ENE 01:10:32 40° ENE 01:16:01 10° N visible
19 Oct 3.6 02:55:38 27° WNW 02:55:38 27° WNW 02:59:32 10° NW visible
19 Oct 3.6 23:57:03 10° ENE 23:58:21 11° ENE 23:59:39 10° NE visible
20 Oct 2.0 01:42:07 62° NNE 01:42:07 62° NNE 01:47:26 10° N visible
20 Oct 4.3 03:27:14 14° WNW 03:27:14 14° WNW 03:29:12 10° NW visible
21 Oct 3.0 00:28:35 20° ENE 00:28:56 20° ENE 00:33:18 10° NNE visible
21 Oct 2.5 02:13:43 50° NW 02:13:43 50° NW 02:18:29 10° NNW visible
22 Oct 2.5 01:00:11 35° ENE 01:00:11 35° ENE 01:05:18 10° N visible
22 Oct 3.5 02:45:18 29° WNW 02:45:18 29° WNW 02:49:09 10° NNW visible
23 Oct 2.1 01:31:46 53° NNE 01:31:46 53° NNE 01:36:48 10° N visible
23 Oct 4.2 03:16:53 16° WNW 03:16:53 16° WNW 03:19:07 10° NW visible
24 Oct 3.2 00:18:15 17° ENE 00:18:29 17° ENE 00:22:20 10° NNE visible
24 Oct 2.5 02:03:22 50° NNW 02:03:22 50° NNW 02:07:56 10° NNW visible
25 Oct 2.6 00:49:50 30° ENE 00:49:50 30° ENE 00:54:32 10° N visible
25 Oct 3.3 02:34:56 32° NW 02:34:56 32° NW 02:38:42 10° NNW visible
